owner,sensor,date,latitude,longitude,air_temperature,qcFlag 
FIT,ioos:station:wmo:SIPF1:1,2013-08-01T08:15:00Z,27.8620,-80.4450,26.0,11111222 
FIT,ioos:station:wmo:SIPF1:1,2013-08-01T08:30:00Z,27.8620,-80.4450,25.6,11111222 
FIT,ioos:station:wmo:SIPF1:1,2013-08-01T08:45:00Z,27.8620,-80.4450,25.9,11111222 
FIT,ioos:station:wmo:SIPF1:1,2013-08-01T09:00:00Z,27.8620,-80.4450,25.7,11111222 
FIT,ioos:station:wmo:SIPF1:1,2013-08-01T09:15:00Z,27.8620,-80.4450,25.7,11111222 
FIT,ioos:station:wmo:SIPF1:1,2013-08-01T09:30:00Z,27.8620,-80.4450,25.9,11111222 
FIT,ioos:station:wmo:SIPF1:1,2013-08-01T09:45:00Z,27.8620,-80.4450,26.0,11111222 
FIT,ioos:station:wmo:SIPF1:1,2013-08-01T10:00:00Z,27.8620,-80.4450,26.0,11111222 
FIT,ioos:station:wmo:SIPF1:1,2013-08-01T10:15:00Z,27.8620,-80.4450,25.7,11111222 
FIT,ioos:station:wmo:SIPF1:1,2013-08-01T10:30:00Z,27.8620,-80.4450,25.8,11111222 
FIT,ioos:station:wmo:SIPF1:1,2013-08-01T10:45:00Z,27.8620,-80.4450,25.8,11111222 
FIT,ioos:station:wmo:SIPF1:1,2013-08-01T11:00:00Z,27.8620,-80.4450,25.8,11111222 
FIT,ioos:station:wmo:SIPF1:1,2013-08-01T11:15:00Z,27.8620,-80.4450,25.5,11111222 
FIT,ioos:station:wmo:SIPF1:1,2013-08-01T11:30:00Z,27.8620,-80.4450,25.8,11111222 
FIT,ioos:station:wmo:SIPF1:1,2013-08-01T11:45:00Z,27.8620,-80.4450,26.2,11111222 
FIT,ioos:station:wmo:SIPF1:1,2013-08-01T12:00:00Z,27.8620,-80.4450,26.3,11111222 
FIT,ioos:station:wmo:SIPF1:1,2013-08-01T12:15:00Z,27.8620,-80.4450,26.6,11111222 
FIT,ioos:station:wmo:SIPF1:1,2013-08-01T12:30:00Z,27.8620,-80.4450,26.9,11111222 
FIT,ioos:station:wmo:SIPF1:1,2013-08-01T12:45:00Z,27.8620,-80.4450,26.7,11111222 
FIT,ioos:station:wmo:SIPF1:1,2013-08-01T13:00:00Z,27.8620,-80.4450,26.9,11111222 
FIT,ioos:station:wmo:SIPF1:1,2013-08-01T13:15:00Z,27.8620,-80.4450,27.4,11111222 
FIT,ioos:station:wmo:SIPF1:1,2013-08-01T13:30:00Z,27.8620,-80.4450,27.4,11111222 
FIT,ioos:station:wmo:SIPF1:1,2013-08-02T04:30:00Z,27.8620,-80.4450,26.9,11111222 
FIT,ioos:station:wmo:SIPF1:1,2013-08-02T04:45:00Z,27.8620,-80.4450,27.0,11111222 
FIT,ioos:station:wmo:SIPF1:1,2013-08-02T05:00:00Z,27.8620,-80.4450,27.0,11111222 
FIT,ioos:station:wmo:SIPF1:1,2013-08-02T05:15:00Z,27.8620,-80.4450,27.0,11111222 
FIT,ioos:station:wmo:SIPF1:1,2013-08-02T05:30:00Z,27.8620,-80.4450,27.1,11111222 
FIT,ioos:station:wmo:SIPF1:1,2013-08-02T05:45:00Z,27.8620,-80.4450,27.0,11111222 
FIT,ioos:station:wmo:SIPF1:1,2013-08-02T06:00:00Z,27.8620,-80.4450,27.0,11111222 
FIT,ioos:station:wmo:SIPF1:1,2013-08-02T06:45:00Z,27.8620,-80.4450,26.9,11111222 
FIT,ioos:station:wmo:SIPF1:1,2013-08-02T07:00:00Z,27.8620,-80.4450,26.9,11111222 
FIT,ioos:station:wmo:SIPF1:1,2013-08-02T07:15:00Z,27.8620,-80.4450,26.8,11111222 
FIT,ioos:station:wmo:SIPF1:1,2013-08-02T07:30:00Z,27.8620,-80.4450,26.8,11111222 
FIT,ioos:station:wmo:SIPF1:1,2013-08-02T07:45:00Z,27.8620,-80.4450,26.8,11111222 
FIT,ioos:station:wmo:SIPF1:1,2013-08-02T08:00:00Z,27.8620,-80.4450,26.8,11111222 
FIT,ioos:station:wmo:SIPF1:1,2013-08-02T08:15:00Z,27.8620,-80.4450,26.8,11111222 
FIT,ioos:station:wmo:SIPF1:1,2013-08-02T08:30:00Z,27.8620,-80.4450,26.5,11111222 
FIT,ioos:station:wmo:SIPF1:1,2013-08-02T08:45:00Z,27.8620,-80.4450,26.3,11111222 
FIT,ioos:station:wmo:SIPF1:1,2013-08-02T09:00:00Z,27.8620,-80.4450,26.2,11111222 
FIT,ioos:station:wmo:SIPF1:1,2013-08-02T09:15:00Z,27.8620,-80.4450,26.3,11111222 
FIT,ioos:station:wmo:SIPF1:1,2013-08-02T09:30:00Z,27.8620,-80.4450,26.1,11111222 
FIT,ioos:station:wmo:SIPF1:1,2013-08-02T09:45:00Z,27.8620,-80.4450,26.1,11111222 
FIT,ioos:station:wmo:SIPF1:1,2013-08-02T10:00:00Z,27.8620,-80.4450,25.7,11111222 
FIT,ioos:station:wmo:SIPF1:1,2013-08-02T10:15:00Z,27.8620,-80.4450,25.5,11111222 
FIT,ioos:station:wmo:SIPF1:1,2013-08-02T10:30:00Z,27.8620,-80.4450,25.6,11111222 
FIT,ioos:station:wmo:SIPF1:1,2013-08-02T10:45:00Z,27.8620,-80.4450,25.6,11111222 
FIT,ioos:station:wmo:SIPF1:1,2013-08-02T11:00:00Z,27.8620,-80.4450,25.6,11111222 
FIT,ioos:station:wmo:SIPF1:1,2013-08-02T11:15:00Z,27.8620,-80.4450,25.5,11111222 
FIT,ioos:station:wmo:SIPF1:1,2013-08-02T11:30:00Z,27.8620,-80.4450,25.5,11111222 
FIT,ioos:station:wmo:SIPF1:1,2013-08-02T11:45:00Z,27.8620,-80.4450,25.9,11111222 
FIT,ioos:station:wmo:SIPF1:1,2013-08-02T12:00:00Z,27.8620,-80.4450,26.2,11111222 
FIT,ioos:station:wmo:SIPF1:1,2013-08-02T12:15:00Z,27.8620,-80.4450,27.0,11111222 
FIT,ioos:station:wmo:SIPF1:1,2013-08-02T12:30:00Z,27.8620,-80.4450,27.2,11111222 
FIT,ioos:station:wmo:SIPF1:1,2013-08-02T12:45:00Z,27.8620,-80.4450,26.9,11111222 
FIT,ioos:station:wmo:SIPF1:1,2013-08-02T13:00:00Z,27.8620,-80.4450,26.7,11111222 
FIT,ioos:station:wmo:SIPF1:1,2013-08-02T13:15:00Z,27.8620,-80.4450,26.4,11111222 
FIT,ioos:station:wmo:SIPF1:1,2013-08-02T13:30:00Z,27.8620,-80.4450,26.1,11111222 
FIT,ioos:station:wmo:SIPF1:1,2013-08-02T13:45:00Z,27.8620,-80.4450,26.1,11111222 
FIT,ioos:station:wmo:SIPF1:1,2013-08-02T14:00:00Z,27.8620,-80.4450,26.1,11111222 
FIT,ioos:station:wmo:SIPF1:1,2013-08-02T14:15:00Z,27.8620,-80.4450,26.0,11111222 
FIT,ioos:station:wmo:SIPF1:1,2013-08-02T14:30:00Z,27.8620,-80.4450,26.0,11111222 
FIT,ioos:station:wmo:SIPF1:1,2013-08-02T14:45:00Z,27.8620,-80.4450,26.1,11111222 
FIT,ioos:station:wmo:SIPF1:1,2013-08-02T15:00:00Z,27.8620,-80.4450,26.2,11111222 
FIT,ioos:station:wmo:SIPF1:1,2013-08-02T15:15:00Z,27.8620,-80.4450,26.3,11111222 
FIT,ioos:station:wmo:SIPF1:1,2013-08-02T15:30:00Z,27.8620,-80.4450,26.5,11111222 
FIT,ioos:station:wmo:SIPF1:1,2013-08-02T15:45:00Z,27.8620,-80.4450,26.6,11111222 
FIT,ioos:station:wmo:SIPF1:1,2013-08-02T16:00:00Z,27.8620,-80.4450,26.8,11111222 
FIT,ioos:station:wmo:SIPF1:1,2013-08-02T16:15:00Z,27.8620,-80.4450,26.9,11111222 
FIT,ioos:station:wmo:SIPF1:1,2013-08-02T16:30:00Z,27.8620,-80.4450,27.0,11111222 
FIT,ioos:station:wmo:SIPF1:1,2013-08-02T16:45:00Z,27.8620,-80.4450,25.7,11111222 
FIT,ioos:station:wmo:SIPF1:1,2013-08-02T17:00:00Z,27.8620,-80.4450,25.5,11111222 
FIT,ioos:station:wmo:SIPF1:1,2013-08-02T17:15:00Z,27.8620,-80.4450,26.0,11111222 
FIT,ioos:station:wmo:SIPF1:1,2013-08-02T17:30:00Z,27.8620,-80.4450,25.5,11111222 
FIT,ioos:station:wmo:SIPF1:1,2013-08-02T17:45:00Z,27.8620,-80.4450,25.6,11111222 
FIT,ioos:station:wmo:SIPF1:1,2013-08-02T18:00:00Z,27.8620,-80.4450,26.0,11111222 
FIT,ioos:station:wmo:SIPF1:1,2013-08-02T18:15:00Z,27.8620,-80.4450,26.0,11111222 
FIT,ioos:station:wmo:SIPF1:1,2013-08-02T18:30:00Z,27.8620,-80.4450,25.8,11111222 
FIT,ioos:station:wmo:SIPF1:1,2013-08-02T18:45:00Z,27.8620,-80.4450,26.0,11111222 
FIT,ioos:station:wmo:SIPF1:1,2013-08-02T19:00:00Z,27.8620,-80.4450,26.3,11111222 
FIT,ioos:station:wmo:SIPF1:1,2013-08-02T19:15:00Z,27.8620,-80.4450,26.7,11111222 
FIT,ioos:station:wmo:SIPF1:1,2013-08-02T19:30:00Z,27.8620,-80.4450,26.7,11111222 
FIT,ioos:station:wmo:SIPF1:1,2013-08-02T19:45:00Z,27.8620,-80.4450,26.7,11111222 
FIT,ioos:station:wmo:SIPF1:1,2013-08-02T20:00:00Z,27.8620,-80.4450,26.7,11111222 
FIT,ioos:station:wmo:SIPF1:1,2013-08-02T20:15:00Z,27.8620,-80.4450,26.7,11111222 
FIT,ioos:station:wmo:SIPF1:1,2013-08-02T20:30:00Z,27.8620,-80.4450,26.7,11111222 
FIT,ioos:station:wmo:SIPF1:1,2013-08-02T20:45:00Z,27.8620,-80.4450,26.8,11111222 
FIT,ioos:station:wmo:SIPF1:1,2013-08-02T21:00:00Z,27.8620,-80.4450,27.0,11111222 
FIT,ioos:station:wmo:SIPF1:1,2013-08-02T21:15:00Z,27.8620,-80.4450,27.1,11111222 
FIT,ioos:station:wmo:SIPF1:1,2013-08-02T21:30:00Z,27.8620,-80.4450,27.2,11111222 
FIT,ioos:station:wmo:SIPF1:1,2013-08-02T21:45:00Z,27.8620,-80.4450,27.1,11111222 
FIT,ioos:station:wmo:SIPF1:1,2013-08-02T22:00:00Z,27.8620,-80.4450,27.1,11111222 
FIT,ioos:station:wmo:SIPF1:1,2013-08-02T22:15:00Z,27.8620,-80.4450,27.2,11111222 
FIT,ioos:station:wmo:SIPF1:1,2013-08-02T22:30:00Z,27.8620,-80.4450,27.2,11111222 
FIT,ioos:station:wmo:SIPF1:1,2013-08-02T22:45:00Z,27.8620,-80.4450,27.2,11111222 
FIT,ioos:station:wmo:SIPF1:1,2013-08-02T23:00:00Z,27.8620,-80.4450,27.2,11111222 
FIT,ioos:station:wmo:SIPF1:1,2013-08-02T23:15:00Z,27.8620,-80.4450,27.3,11111222 
FIT,ioos:station:wmo:SIPF1:1,2013-08-02T23:30:00Z,27.8620,-80.4450,27.2,11111222 
FIT,ioos:station:wmo:SIPF1:1,2013-08-02T23:45:00Z,27.8620,-80.4450,27.2,11111222 
FIT,ioos:station:wmo:SIPF1:1,2013-08-03T00:00:00Z,27.8620,-80.4450,27.1,11111222 
FIT,ioos:station:wmo:SIPF1:1,2013-08-03T00:15:00Z,27.8620,-80.4450,27.1,11111222 
FIT,ioos:station:wmo:SIPF1:1,2013-08-03T00:30:00Z,27.8620,-80.4450,27.1,11111222 
FIT,ioos:station:wmo:SIPF1:1,2013-08-03T00:45:00Z,27.8620,-80.4450,27.3,11111222 
FIT,ioos:station:wmo:SIPF1:1,2013-08-03T01:00:00Z,27.8620,-80.4450,27.4,11111222 
FIT,ioos:station:wmo:SIPF1:1,2013-08-03T01:15:00Z,27.8620,-80.4450,27.3,11111222 
FIT,ioos:station:wmo:SIPF1:1,2013-08-03T01:30:00Z,27.8620,-80.4450,27.2,11111222 
FIT,ioos:station:wmo:SIPF1:1,2013-08-03T01:45:00Z,27.8620,-80.4450,26.9,11111222 
FIT,ioos:station:wmo:SIPF1:1,2013-08-03T02:00:00Z,27.8620,-80.4450,26.5,11111222 
FIT,ioos:station:wmo:SIPF1:1,2013-08-03T02:15:00Z,27.8620,-80.4450,26.3,11111222 
FIT,ioos:station:wmo:SIPF1:1,2013-08-03T02:30:00Z,27.8620,-80.4450,26.2,11111222 
FIT,ioos:station:wmo:SIPF1:1,2013-08-03T02:45:00Z,27.8620,-80.4450,25.9,11111222 
FIT,ioos:station:wmo:SIPF1:1,2013-08-03T03:00:00Z,27.8620,-80.4450,25.6,11111222 
FIT,ioos:station:wmo:SIPF1:1,2013-08-03T03:15:00Z,27.8620,-80.4450,25.5,11111222 
FIT,ioos:station:wmo:SIPF1:1,2013-08-03T03:30:00Z,27.8620,-80.4450,25.4,11111222 
FIT,ioos:station:wmo:SIPF1:1,2013-08-03T03:45:00Z,27.8620,-80.4450,25.4,11111222 
FIT,ioos:station:wmo:SIPF1:1,2013-08-03T04:00:00Z,27.8620,-80.4450,25.4,11111222 
FIT,ioos:station:wmo:SIPF1:1,2013-08-03T04:15:00Z,27.8620,-80.4450,25.4,11111222 
FIT,ioos:station:wmo:SIPF1:1,2013-08-03T04:30:00Z,27.8620,-80.4450,25.3,11111222 
FIT,ioos:station:wmo:SIPF1:1,2013-08-03T04:45:00Z,27.8620,-80.4450,25.5,11111222 
FIT,ioos:station:wmo:SIPF1:1,2013-08-03T05:00:00Z,27.8620,-80.4450,25.5,11111222 
FIT,ioos:station:wmo:SIPF1:1,2013-08-03T05:15:00Z,27.8620,-80.4450,25.3,11111222 
FIT,ioos:station:wmo:SIPF1:1,2013-08-03T05:30:00Z,27.8620,-80.4450,25.2,11111222 
FIT,ioos:station:wmo:SIPF1:1,2013-08-03T05:45:00Z,27.8620,-80.4450,25.2,11111222 
FIT,ioos:station:wmo:SIPF1:1,2013-08-03T06:00:00Z,27.8620,-80.4450,25.0,11111222 
FIT,ioos:station:wmo:SIPF1:1,2013-08-03T06:15:00Z,27.8620,-80.4450,24.9,11111222 
FIT,ioos:station:wmo:SIPF1:1,2013-08-03T06:30:00Z,27.8620,-80.4450,24.9,11111222 
FIT,ioos:station:wmo:SIPF1:1,2013-08-03T06:45:00Z,27.8620,-80.4450,24.9,11111222 
FIT,ioos:station:wmo:SIPF1:1,2013-08-03T07:00:00Z,27.8620,-80.4450,24.8,11111222 
FIT,ioos:station:wmo:SIPF1:1,2013-08-03T07:15:00Z,27.8620,-80.4450,24.8,11111222 
FIT,ioos:station:wmo:SIPF1:1,2013-08-03T07:30:00Z,27.8620,-80.4450,24.9,11111222 
FIT,ioos:station:wmo:SIPF1:1,2013-08-03T07:45:00Z,27.8620,-80.4450,24.8,11111222 
FIT,ioos:station:wmo:SIPF1:1,2013-08-03T08:00:00Z,27.8620,-80.4450,24.6,11111222 
FIT,ioos:station:wmo:SIPF1:1,2013-08-03T08:15:00Z,27.8620,-80.4450,24.6,11111222 
FIT,ioos:station:wmo:SIPF1:1,2013-08-03T08:30:00Z,27.8620,-80.4450,24.8,11111222 
FIT,ioos:station:wmo:SIPF1:1,2013-08-03T08:45:00Z,27.8620,-80.4450,24.8,11111222 
FIT,ioos:station:wmo:SIPF1:1,2013-08-03T09:00:00Z,27.8620,-80.4450,24.7,11111222 
FIT,ioos:station:wmo:SIPF1:1,2013-08-03T09:15:00Z,27.8620,-80.4450,24.8,11111222 
FIT,ioos:station:wmo:SIPF1:1,2013-08-03T09:30:00Z,27.8620,-80.4450,24.8,11111222 
FIT,ioos:station:wmo:SIPF1:1,2013-08-03T09:45:00Z,27.8620,-80.4450,24.9,11111222 
FIT,ioos:station:wmo:SIPF1:1,2013-08-03T10:00:00Z,27.8620,-80.4450,25.0,11111222 
FIT,ioos:station:wmo:SIPF1:1,2013-08-03T10:15:00Z,27.8620,-80.4450,25.1,11111222 
FIT,ioos:station:wmo:SIPF1:1,2013-08-03T10:30:00Z,27.8620,-80.4450,25.2,11111222 
FIT,ioos:station:wmo:SIPF1:1,2013-08-03T10:45:00Z,27.8620,-80.4450,25.2,11111222 
FIT,ioos:station:wmo:SIPF1:1,2013-08-03T11:00:00Z,27.8620,-80.4450,25.1,11111222 
FIT,ioos:station:wmo:SIPF1:1,2013-08-03T11:15:00Z,27.8620,-80.4450,25.1,11111222 
FIT,ioos:station:wmo:SIPF1:1,2013-08-03T11:30:00Z,27.8620,-80.4450,25.1,11111222 
FIT,ioos:station:wmo:SIPF1:1,2013-08-03T11:45:00Z,27.8620,-80.4450,25.1,11111222 
FIT,ioos:station:wmo:SIPF1:1,2013-08-03T12:00:00Z,27.8620,-80.4450,25.1,11111222 
FIT,ioos:station:wmo:SIPF1:1,2013-08-03T12:15:00Z,27.8620,-80.4450,25.2,11111222 
FIT,ioos:station:wmo:SIPF1:1,2013-08-03T12:30:00Z,27.8620,-80.4450,25.2,11111222 
FIT,ioos:station:wmo:SIPF1:1,2013-08-03T12:45:00Z,27.8620,-80.4450,25.4,11111222 
FIT,ioos:station:wmo:SIPF1:1,2013-08-03T13:00:00Z,27.8620,-80.4450,25.5,11111222 
FIT,ioos:station:wmo:SIPF1:1,2013-08-03T13:15:00Z,27.8620,-80.4450,25.7,11111222 
FIT,ioos:station:wmo:SIPF1:1,2013-08-03T13:30:00Z,27.8620,-80.4450,25.8,11111222 
FIT,ioos:station:wmo:SIPF1:1,2013-08-03T13:45:00Z,27.8620,-80.4450,25.9,11111222 
FIT,ioos:station:wmo:SIPF1:1,2013-08-03T14:00:00Z,27.8620,-80.4450,26.1,11111222 
FIT,ioos:station:wmo:SIPF1:1,2013-08-03T14:15:00Z,27.8620,-80.4450,26.3,11111222 
FIT,ioos:station:wmo:SIPF1:1,2013-08-03T14:30:00Z,27.8620,-80.4450,26.5,11111222 
FIT,ioos:station:wmo:SIPF1:1,2013-08-03T14:45:00Z,27.8620,-80.4450,26.9,11111222 
FIT,ioos:station:wmo:SIPF1:1,2013-08-03T15:00:00Z,27.8620,-80.4450,27.2,11111222 
FIT,ioos:station:wmo:SIPF1:1,2013-08-03T15:15:00Z,27.8620,-80.4450,27.3,11111222 
FIT,ioos:station:wmo:SIPF1:1,2013-08-03T15:30:00Z,27.8620,-80.4450,27.4,11111222 
FIT,ioos:station:wmo:SIPF1:1,2013-08-03T15:45:00Z,27.8620,-80.4450,27.5,11111222 
FIT,ioos:station:wmo:SIPF1:1,2013-08-03T16:00:00Z,27.8620,-80.4450,27.7,11111222 
FIT,ioos:station:wmo:SIPF1:1,2013-08-03T16:15:00Z,27.8620,-80.4450,27.9,11111222 
FIT,ioos:station:wmo:SIPF1:1,2013-08-03T16:30:00Z,27.8620,-80.4450,27.1,11111222 
FIT,ioos:station:wmo:SIPF1:1,2013-08-03T16:45:00Z,27.8620,-80.4450,27.0,11111222 
FIT,ioos:station:wmo:SIPF1:1,2013-08-03T17:00:00Z,27.8620,-80.4450,27.0,11111222 
FIT,ioos:station:wmo:SIPF1:1,2013-08-03T17:15:00Z,27.8620,-80.4450,26.5,11111222 
FIT,ioos:station:wmo:SIPF1:1,2013-08-03T17:30:00Z,27.8620,-80.4450,26.3,11111222 
FIT,ioos:station:wmo:SIPF1:1,2013-08-03T17:45:00Z,27.8620,-80.4450,25.9,11111222 
FIT,ioos:station:wmo:SIPF1:1,2013-08-03T18:00:00Z,27.8620,-80.4450,25.8,11111222 
FIT,ioos:station:wmo:SIPF1:1,2013-08-03T18:15:00Z,27.8620,-80.4450,25.8,11111222 
FIT,ioos:station:wmo:SIPF1:1,2013-08-03T18:30:00Z,27.8620,-80.4450,25.9,11111222 
FIT,ioos:station:wmo:SIPF1:1,2013-08-03T18:45:00Z,27.8620,-80.4450,25.8,11111222 
FIT,ioos:station:wmo:SIPF1:1,2013-08-03T19:00:00Z,27.8620,-80.4450,25.6,11111222 
FIT,ioos:station:wmo:SIPF1:1,2013-08-03T19:15:00Z,27.8620,-80.4450,25.6,11111222 
FIT,ioos:station:wmo:SIPF1:1,2013-08-03T19:30:00Z,27.8620,-80.4450,25.8,11111222 
FIT,ioos:station:wmo:SIPF1:1,2013-08-03T19:45:00Z,27.8620,-80.4450,26.1,11111222 
FIT,ioos:station:wmo:SIPF1:1,2013-08-03T20:00:00Z,27.8620,-80.4450,26.5,11111222 
FIT,ioos:station:wmo:SIPF1:1,2013-08-03T20:15:00Z,27.8620,-80.4450,26.8,11111222 
FIT,ioos:station:wmo:SIPF1:1,2013-08-03T20:30:00Z,27.8620,-80.4450,27.1,11111222 
FIT,ioos:station:wmo:SIPF1:1,2013-08-03T20:45:00Z,27.8620,-80.4450,27.2,11111222 
FIT,ioos:station:wmo:SIPF1:1,2013-08-03T21:00:00Z,27.8620,-80.4450,27.3,11111222 
FIT,ioos:station:wmo:SIPF1:1,2013-08-03T21:15:00Z,27.8620,-80.4450,26.7,11111222 
FIT,ioos:station:wmo:SIPF1:1,2013-08-03T21:30:00Z,27.8620,-80.4450,26.2,11111222 
FIT,ioos:station:wmo:SIPF1:1,2013-08-03T21:45:00Z,27.8620,-80.4450,26.2,11111222 
FIT,ioos:station:wmo:SIPF1:1,2013-08-03T22:00:00Z,27.8620,-80.4450,25.5,11111222 
FIT,ioos:station:wmo:SIPF1:1,2013-08-03T22:15:00Z,27.8620,-80.4450,24.2,11111222 
FIT,ioos:station:wmo:SIPF1:1,2013-08-03T22:30:00Z,27.8620,-80.4450,23.3,11111222 
FIT,ioos:station:wmo:SIPF1:1,2013-08-03T22:45:00Z,27.8620,-80.4450,23.5,11111222 
FIT,ioos:station:wmo:SIPF1:1,2013-08-03T23:00:00Z,27.8620,-80.4450,23.6,11111222 
FIT,ioos:station:wmo:SIPF1:1,2013-08-03T23:15:00Z,27.8620,-80.4450,23.6,11111222 
FIT,ioos:station:wmo:SIPF1:1,2013-08-03T23:30:00Z,27.8620,-80.4450,23.6,11111222 
FIT,ioos:station:wmo:SIPF1:1,2013-08-03T23:45:00Z,27.8620,-80.4450,23.6,11111222 
FIT,ioos:station:wmo:SIPF1:1,2013-08-04T00:00:00Z,27.8620,-80.4450,23.6,11111222 
FIT,ioos:station:wmo:SIPF1:1,2013-08-04T00:15:00Z,27.8620,-80.4450,23.6,11111222 
FIT,ioos:station:wmo:SIPF1:1,2013-08-04T00:30:00Z,27.8620,-80.4450,23.6,11111222 
FIT,ioos:station:wmo:SIPF1:1,2013-08-04T00:45:00Z,27.8620,-80.4450,23.5,11111222 
FIT,ioos:station:wmo:SIPF1:1,2013-08-04T01:00:00Z,27.8620,-80.4450,23.5,11111222 
FIT,ioos:station:wmo:SIPF1:1,2013-08-04T01:15:00Z,27.8620,-80.4450,23.7,11111222 
FIT,ioos:station:wmo:SIPF1:1,2013-08-04T01:30:00Z,27.8620,-80.4450,23.8,11111222 
FIT,ioos:station:wmo:SIPF1:1,2013-08-04T01:45:00Z,27.8620,-80.4450,24.0,11111222 
FIT,ioos:station:wmo:SIPF1:1,2013-08-04T02:00:00Z,27.8620,-80.4450,24.3,11111222 
FIT,ioos:station:wmo:SIPF1:1,2013-08-04T02:15:00Z,27.8620,-80.4450,24.3,11111222 
FIT,ioos:station:wmo:SIPF1:1,2013-08-04T02:30:00Z,27.8620,-80.4450,24.5,11111222 
FIT,ioos:station:wmo:SIPF1:1,2013-08-04T02:45:00Z,27.8620,-80.4450,24.7,11111222 
FIT,ioos:station:wmo:SIPF1:1,2013-08-04T03:00:00Z,27.8620,-80.4450,24.6,11111222 
FIT,ioos:station:wmo:SIPF1:1,2013-08-04T03:15:00Z,27.8620,-80.4450,24.5,11111222 
FIT,ioos:station:wmo:SIPF1:1,2013-08-04T03:30:00Z,27.8620,-80.4450,24.5,11111222 
FIT,ioos:station:wmo:SIPF1:1,2013-08-04T03:45:00Z,27.8620,-80.4450,24.5,11111222 
FIT,ioos:station:wmo:SIPF1:1,2013-08-04T04:00:00Z,27.8620,-80.4450,24.5,11111222 
FIT,ioos:station:wmo:SIPF1:1,2013-08-04T04:15:00Z,27.8620,-80.4450,24.7,11111222 
FIT,ioos:station:wmo:SIPF1:1,2013-08-04T04:30:00Z,27.8620,-80.4450,24.8,11111222 
FIT,ioos:station:wmo:SIPF1:1,2013-08-04T04:45:00Z,27.8620,-80.4450,24.8,11111222 
FIT,ioos:station:wmo:SIPF1:1,2013-08-04T05:00:00Z,27.8620,-80.4450,24.7,11111222 
FIT,ioos:station:wmo:SIPF1:1,2013-08-04T05:15:00Z,27.8620,-80.4450,24.7,11111222 
FIT,ioos:station:wmo:SIPF1:1,2013-08-04T05:30:00Z,27.8620,-80.4450,24.6,11111222 
FIT,ioos:station:wmo:SIPF1:1,2013-08-04T05:45:00Z,27.8620,-80.4450,24.7,11111222 
FIT,ioos:station:wmo:SIPF1:1,2013-08-04T06:00:00Z,27.8620,-80.4450,24.8,11111222 
FIT,ioos:station:wmo:SIPF1:1,2013-08-04T06:15:00Z,27.8620,-80.4450,24.7,11111222 
FIT,ioos:station:wmo:SIPF1:1,2013-08-04T06:30:00Z,27.8620,-80.4450,24.7,11111222 
FIT,ioos:station:wmo:SIPF1:1,2013-08-04T06:45:00Z,27.8620,-80.4450,24.6,11111222 
FIT,ioos:station:wmo:SIPF1:1,2013-08-04T07:00:00Z,27.8620,-80.4450,24.6,11111222 
FIT,ioos:station:wmo:SIPF1:1,2013-08-04T07:15:00Z,27.8620,-80.4450,24.5,11111222 
FIT,ioos:station:wmo:SIPF1:1,2013-08-04T07:30:00Z,27.8620,-80.4450,24.5,11111222 
FIT,ioos:station:wmo:SIPF1:1,2013-08-04T07:45:00Z,27.8620,-80.4450,24.4,11111222 
FIT,ioos:station:wmo:SIPF1:1,2013-08-04T08:00:00Z,27.8620,-80.4450,24.4,11111222 
FIT,ioos:station:wmo:SIPF1:1,2013-08-04T08:15:00Z,27.8620,-80.4450,24.4,11111222 
FIT,ioos:station:wmo:SIPF1:1,2013-08-04T08:30:00Z,27.8620,-80.4450,24.4,11111222 
FIT,ioos:station:wmo:SIPF1:1,2013-08-04T08:45:00Z,27.8620,-80.4450,24.4,11111222 
FIT,ioos:station:wmo:SIPF1:1,2013-08-04T09:00:00Z,27.8620,-80.4450,24.3,11111222 
FIT,ioos:station:wmo:SIPF1:1,2013-08-04T09:15:00Z,27.8620,-80.4450,24.3,11111222 
FIT,ioos:station:wmo:SIPF1:1,2013-08-04T09:30:00Z,27.8620,-80.4450,24.2,11111222 
FIT,ioos:station:wmo:SIPF1:1,2013-08-04T09:45:00Z,27.8620,-80.4450,24.2,11111222 
FIT,ioos:station:wmo:SIPF1:1,2013-08-04T10:00:00Z,27.8620,-80.4450,24.1,11111222 
FIT,ioos:station:wmo:SIPF1:1,2013-08-04T10:15:00Z,27.8620,-80.4450,24.1,11111222 
FIT,ioos:station:wmo:SIPF1:1,2013-08-04T10:30:00Z,27.8620,-80.4450,24.1,11111222 
FIT,ioos:station:wmo:SIPF1:1,2013-08-04T10:45:00Z,27.8620,-80.4450,24.1,11111222 
FIT,ioos:station:wmo:SIPF1:1,2013-08-04T11:00:00Z,27.8620,-80.4450,24.1,11111222 
FIT,ioos:station:wmo:SIPF1:1,2013-08-04T11:15:00Z,27.8620,-80.4450,24.0,11111222 
FIT,ioos:station:wmo:SIPF1:1,2013-08-04T11:30:00Z,27.8620,-80.4450,24.2,11111222 
FIT,ioos:station:wmo:SIPF1:1,2013-08-04T11:45:00Z,27.8620,-80.4450,24.5,11111222 
FIT,ioos:station:wmo:SIPF1:1,2013-08-04T12:00:00Z,27.8620,-80.4450,24.8,11111222 
FIT,ioos:station:wmo:SIPF1:1,2013-08-04T12:15:00Z,27.8620,-80.4450,25.1,11111222 
FIT,ioos:station:wmo:SIPF1:1,2013-08-04T12:30:00Z,27.8620,-80.4450,25.4,11111222 
FIT,ioos:station:wmo:SIPF1:1,2013-08-04T12:45:00Z,27.8620,-80.4450,25.7,11111222 
FIT,ioos:station:wmo:SIPF1:1,2013-08-04T13:00:00Z,27.8620,-80.4450,26.2,11111222 
FIT,ioos:station:wmo:SIPF1:1,2013-08-04T13:15:00Z,27.8620,-80.4450,26.5,11111222 
FIT,ioos:station:wmo:SIPF1:1,2013-08-04T13:30:00Z,27.8620,-80.4450,26.8,11111222 
FIT,ioos:station:wmo:SIPF1:1,2013-08-04T13:45:00Z,27.8620,-80.4450,27.1,11111222 
FIT,ioos:station:wmo:SIPF1:1,2013-08-04T14:00:00Z,27.8620,-80.4450,27.4,11111222 
FIT,ioos:station:wmo:SIPF1:1,2013-08-04T14:15:00Z,27.8620,-80.4450,27.6,11111222 
FIT,ioos:station:wmo:SIPF1:1,2013-08-04T14:30:00Z,27.8620,-80.4450,28.1,11111222 
FIT,ioos:station:wmo:SIPF1:1,2013-08-04T14:45:00Z,27.8620,-80.4450,28.4,11111222 
FIT,ioos:station:wmo:SIPF1:1,2013-08-04T15:00:00Z,27.8620,-80.4450,28.8,11111222 
FIT,ioos:station:wmo:SIPF1:1,2013-08-04T15:15:00Z,27.8620,-80.4450,29.1,11111222 
FIT,ioos:station:wmo:SIPF1:1,2013-08-04T15:30:00Z,27.8620,-80.4450,29.3,11111222 
FIT,ioos:station:wmo:SIPF1:1,2013-08-04T15:45:00Z,27.8620,-80.4450,29.5,11111222 
FIT,ioos:station:wmo:SIPF1:1,2013-08-04T16:00:00Z,27.8620,-80.4450,29.8,11111222 
FIT,ioos:station:wmo:SIPF1:1,2013-08-04T20:45:00Z,27.8620,-80.4450,27.3,11111222 
FIT,ioos:station:wmo:SIPF1:1,2013-08-04T21:00:00Z,27.8620,-80.4450,27.8,11111222 
FIT,ioos:station:wmo:SIPF1:1,2013-08-04T21:15:00Z,27.8620,-80.4450,26.9,11111222 
FIT,ioos:station:wmo:SIPF1:1,2013-08-04T21:30:00Z,27.8620,-80.4450,26.0,11111222 
FIT,ioos:station:wmo:SIPF1:1,2013-08-04T21:45:00Z,27.8620,-80.4450,25.4,11111222 
FIT,ioos:station:wmo:SIPF1:1,2013-08-04T22:00:00Z,27.8620,-80.4450,24.7,11111222 
FIT,ioos:station:wmo:SIPF1:1,2013-08-04T22:15:00Z,27.8620,-80.4450,25.0,11111222 
FIT,ioos:station:wmo:SIPF1:1,2013-08-04T22:30:00Z,27.8620,-80.4450,25.1,11111222 
FIT,ioos:station:wmo:SIPF1:1,2013-08-04T22:45:00Z,27.8620,-80.4450,25.4,11111222 
FIT,ioos:station:wmo:SIPF1:1,2013-08-04T23:00:00Z,27.8620,-80.4450,26.0,11111222 
FIT,ioos:station:wmo:SIPF1:1,2013-08-04T23:15:00Z,27.8620,-80.4450,26.0,11111222 
FIT,ioos:station:wmo:SIPF1:1,2013-08-04T23:30:00Z,27.8620,-80.4450,26.3,11111222 
FIT,ioos:station:wmo:SIPF1:1,2013-08-04T23:45:00Z,27.8620,-80.4450,26.7,11111222 
FIT,ioos:station:wmo:SIPF1:1,2013-08-05T00:00:00Z,27.8620,-80.4450,26.9,11111222 
FIT,ioos:station:wmo:SIPF1:1,2013-08-05T00:15:00Z,27.8620,-80.4450,26.9,11111222 
FIT,ioos:station:wmo:SIPF1:1,2013-08-05T00:30:00Z,27.8620,-80.4450,26.8,11111222 
FIT,ioos:station:wmo:SIPF1:1,2013-08-05T00:45:00Z,27.8620,-80.4450,26.6,11111222 
FIT,ioos:station:wmo:SIPF1:1,2013-08-05T01:00:00Z,27.8620,-80.4450,26.6,11111222 
FIT,ioos:station:wmo:SIPF1:1,2013-08-05T01:15:00Z,27.8620,-80.4450,26.5,11111222 
FIT,ioos:station:wmo:SIPF1:1,2013-08-05T01:30:00Z,27.8620,-80.4450,26.3,11111222 
FIT,ioos:station:wmo:SIPF1:1,2013-08-05T01:45:00Z,27.8620,-80.4450,26.3,11111222 
FIT,ioos:station:wmo:SIPF1:1,2013-08-05T02:00:00Z,27.8620,-80.4450,26.2,11111222 
FIT,ioos:station:wmo:SIPF1:1,2013-08-05T02:15:00Z,27.8620,-80.4450,26.1,11111222 
FIT,ioos:station:wmo:SIPF1:1,2013-08-05T02:30:00Z,27.8620,-80.4450,25.8,11111222 
FIT,ioos:station:wmo:SIPF1:1,2013-08-05T02:45:00Z,27.8620,-80.4450,25.7,11111222 
FIT,ioos:station:wmo:SIPF1:1,2013-08-05T03:00:00Z,27.8620,-80.4450,25.6,11111222 
FIT,ioos:station:wmo:SIPF1:1,2013-08-05T03:15:00Z,27.8620,-80.4450,25.6,11111222 
FIT,ioos:station:wmo:SIPF1:1,2013-08-05T03:30:00Z,27.8620,-80.4450,25.7,11111222 
FIT,ioos:station:wmo:SIPF1:1,2013-08-05T03:45:00Z,27.8620,-80.4450,25.7,11111222 
FIT,ioos:station:wmo:SIPF1:1,2013-08-05T04:00:00Z,27.8620,-80.4450,25.7,11111222 
FIT,ioos:station:wmo:SIPF1:1,2013-08-05T04:15:00Z,27.8620,-80.4450,25.8,11111222 
FIT,ioos:station:wmo:SIPF1:1,2013-08-05T04:30:00Z,27.8620,-80.4450,25.9,11111222 